Tracking 21998 objects as of 1-Dec-2020
HD Live streaming from Space Station
objects crossing your sky now

DIAPASON (D1-A)

Track DIAPASON (D1-A) now!
10-day predictions
DIAPASON (D1-A) is classified as:


NORAD ID: 2016
Int'l Code: 1966-013A
Perigee: 504.8 km
Apogee: 2,356.1 km
Inclination: 34.1 °
Period: 114.3 minutes
Semi major axis: 7801 km
RCS: 1.2804 m2 (large)
Launch date: February 17, 1966
Source: France (FR)
Launch site: HAMMA GUIRA SPACE TRACK RANGE (HGSTR)
aabbcc
Your satellite tracking list
Your tracking list is empty




NASA's NSSDC Master Catalog

Two Line Element Set (TLE):
1  2016U 66013A   20336.11946236  .00000426  00000-0  12937-3 0  9998
2  2016  34.0882 224.4463 1186523 121.9123 250.2441 12.59903309484168
Source of the keplerian elements: AFSPC